[[{"header":{"parameterUnit":"m.s-1","parameterCategory":1,"la1":30.2991,"la2":30.254,"lo1":-89.0895,"lo2":-89.0444,"dy":0.0017,"dx":0.0017,"nx":28,"ny":28,"refTime":"2024-12-11T09:00:00:Z","depth":0,"parameterNumber":2,"parameterNumberName":"U-component_of_WINDS"},"data":[0,0,0,0,0,0,0,0,0,0,0,0,0,0,0,0,0,0,0,0,0,0,0,0,0,0,0,0,0,0,0,0,0,0,0,0,0,0,0,0,0,0,0,0,0,0,0,0,0,0,0,0,0,0,0,0,0,0,5.4582,5.4584,0,5.472,5.4722,5.4723,5.4698,5.4695,5.4693,5.4691,5.4831,5.4837,5.4843,0,0,0,0,0,0,0,0,0,0,0,0,0,5.4298,5.4303,5.4582,5.4584,5.4586,5.472,5.4722,5.4724,5.4698,5.4695,5.4692,5.4689,5.4829,5.4837,5.4844,0,0,0,0,0,0,0,0,0,0,0,0,0,5.4427,5.4305,5.4582,5.4589,5.4591,5.472,5.4722,5.4724,5.4699,5.4695,5.4691,5.4688,5.4827,5.4836,5.4845,5.4975,0,0,5.4873,5.4876,0,0,0,0,0,0,0,0,5.442,5.4437,5.4586,5.4589,5.4591,5.4688,5.4673,5.4808,5.47,5.4658,5.4691,5.4686,5.4787,5.4799,5.4833,5.4981,5.4987,5.4873,5.4879,5.4883,5.4885,0,0,0,0,0,0,0,5.4411,5.4431,5.4637,5.4588,5.4592,5.4586,5.46,5.4699,5.4741,5.4661,5.466,5.4677,5.4787,5.4824,5.4836,5.4989,5.4873,5.4881,5.4887,5.489,5.5255,5.5259,0,0,0,0,0,0,5.4399,5.4424,5.4632,5.4641,5.4495,5.4594,5.461,5.4661,5.474,5.4749,5.468,5.4675,5.481,5.4825,5.4841,5.5,5.4883,5.4891,5.4896,5.5251,5.5256,5.5261,0,0,0,0,0,0,5.4393,5.4418,5.4627,5.4532,5.4558,5.4603,5.466,5.4665,5.4702,5.4754,5.4761,5.4709,5.4808,5.4828,5.4942,5.5005,5.4895,5.4904,5.5246,5.5252,5.5258,5.5319,0,0,0,0,0,0,5.4385,5.4416,5.4465,5.4533,5.4563,5.4726,5.4664,5.4671,5.4718,5.4713,5.4784,5.4792,5.4807,5.4929,5.4952,5.5015,5.4911,5.524,5.5249,5.5256,5.5311,5.5326,5.5339,0,0,0,0,0,5.4375,5.4476,5.4468,5.4493,5.4626,5.4729,5.4746,5.4762,5.4723,5.4773,5.4807,5.479,5.4994,5.4941,5.4966,5.5033,5.5237,5.5246,5.5256,5.5305,5.5323,5.5339,0,0,0,0,0,0,5.4413,5.4485,5.4477,5.4603,5.466,5.4725,5.4788,5.478,5.4849,5.4842,5.4858,5.4874,5.4991,5.5023,5.4963,5.5165,5.511,5.5125,5.5139,5.5157,5.5171,5.516,5.4918,0,0,0,0,0,5.4436,5.4514,5.4573,5.4678,5.4708,5.4743,5.4789,5.4796,5.4856,5.488,5.4922,5.4981,5.5059,5.511,5.5184,5.5316,5.5332,5.5375,5.5389,5.54,5.5413,5.5488,5.5508,5.5292,5.5292,5.5292,0,0,5.4484,5.4533,5.4581,5.4687,5.4732,5.4813,5.4764,5.4851,5.4911,5.4893,5.5004,5.5038,5.5105,5.5229,5.5286,5.526,5.5477,5.5412,5.5421,5.5428,5.55,5.5521,5.5539,5.5298,5.5297,5.5296,0,0,5.4614,5.4658,5.4752,5.4799,5.4869,5.4893,5.4916,5.4983,5.5004,5.5116,5.5105,5.5178,5.5311,5.536,5.5402,5.5555,5.5542,5.5578,5.5651,5.5724,5.5741,5.5756,5.5812,5.5832,5.5591,5.5591,5.5591,0,5.4665,5.4786,5.4801,5.4891,5.4938,5.4927,5.5023,5.5068,5.5159,5.5192,5.5162,5.5331,5.5375,5.5512,5.555,5.5584,5.5612,5.557,5.5737,5.5753,5.5767,5.5821,5.5841,5.5595,5.5595,5.5594,5.5594,0,5.4846,5.4931,5.4999,5.5088,5.5143,5.5235,5.5265,5.532,5.5323,5.535,5.5466,5.5519,5.5605,5.5639,5.5642,5.5778,5.5759,5.5733,5.5678,5.5792,5.5842,5.5863,5.5601,5.5599,5.5598,5.5597,0,0,5.5002,5.51,5.5125,5.5166,5.5244,5.531,5.5403,5.5488,5.5535,5.5599,5.5678,5.5793,5.577,5.5818,5.5827,5.5891,5.6011,5.5858,5.586,5.5886,5.6167,5.6186,5.621,5.6004,5.6007,5.6011,5.6161,0,5.5139,5.5303,5.5321,5.5467,5.5547,5.5539,5.562,5.5677,5.5706,5.5778,5.581,5.5892,5.5855,5.5884,5.5947,5.5983,5.6068,5.5973,5.6078,5.6082,5.6062,5.6236,5.6256,5.6396,5.6181,5.6184,5.6187,0,5.5321,5.5392,5.5547,5.5616,5.565,5.5723,5.5804,5.5873,5.5938,5.5955,5.6011,5.6012,5.611,5.6052,5.6187,5.6122,5.6166,5.6191,5.6197,5.6207,5.6141,5.6252,5.644,5.6462,5.6218,5.6215,5.6213,0,5.5421,5.5555,5.5665,5.5701,5.5784,5.5836,5.5873,5.5935,5.5986,5.6057,5.6091,5.6172,5.6217,5.628,5.6304,5.6259,5.6439,5.6382,5.6457,5.6456,5.6495,5.6492,5.6694,5.6522,5.6522,5.6522,5.6521,0,5.5573,5.5669,5.5711,5.5779,5.5887,5.5907,5.6013,5.6048,5.6104,5.618,5.6177,5.6249,5.6276,5.6352,5.6371,5.6482,5.6501,5.6519,5.6523,5.6519,5.6517,5.6549,5.654,5.6527,5.6526,5.6525,5.6524,0,5.5702,5.5735,5.5855,5.5925,5.5945,5.6021,5.6082,5.6148,5.6177,5.6273,5.6297,5.6342,5.6432,5.6463,5.6571,5.6584,5.6713,5.6708,5.6691,5.6692,5.6765,5.6758,5.6994,5.7027,5.6834,5.6835,5.6837,0,5.5797,5.5871,5.595,5.6001,5.604,5.6122,5.6174,5.6198,5.6253,5.6336,5.6393,5.6482,5.6555,5.6699,5.6742,5.6825,5.6823,5.6901,5.6836,5.6831,5.6826,5.6822,5.683,5.6913,5.6915,5.6916,5.6917,0,5.5964,5.5977,5.6053,5.6136,5.6199,5.6265,5.6329,5.6371,5.6405,5.6467,5.6559,5.6616,5.6728,5.6817,5.6903,5.6942,5.6937,5.6938,5.696,5.6957,5.6944,5.6954,5.6725,5.6932,5.6931,5.693,5.6929,5.6928,5.608,5.6146,5.6212,5.6298,5.6349,5.641,5.6476,5.6515,5.6592,5.6685,5.6695,5.6795,5.6861,5.6976,5.702,5.7099,5.7078,5.7109,5.7117,5.7125,5.7131,5.6932,5.7115,5.7115,5.7114,5.7114,5.7114,0,5.6247,5.629,5.6369,5.6459,5.6527,5.6516,5.6588,5.6645,5.6733,5.6796,5.6868,5.6976,5.7063,5.7114,5.7202,5.7256,5.7256,5.7279,5.7275,5.7285,5.7144,5.7117,5.7278,5.7278,5.7277,5.7277,5.7277,5.7277,5.6342,5.6454,5.6475,5.6613,5.6656,5.6754,5.6796,5.6853,5.6903,5.7023,5.7096,5.7129,5.7188,5.7281,5.7361,5.7374,5.7407,5.7432,5.7443,5.7311,5.7294,5.7278,5.7253,5.7439,5.7439,5.7577,5.7578,5.7579]},{"header":{"parameterUnit":"m.s-1","parameterCategory":1,"la1":30.2991,"la2":30.254,"lo1":-89.0895,"lo2":-89.0444,"dy":0.0017,"dx":0.0017,"nx":28,"ny":28,"refTime":"2024-12-11T09:00:00:Z","depth":0,"parameterNumber":3,"parameterNumberName":"V-component_of_WINDS"},"data":[0,0,0,0,0,0,0,0,0,0,0,0,0,0,0,0,0,0,0,0,0,0,0,0,0,0,0,0,0,0,0,0,0,0,0,0,0,0,0,0,0,0,0,0,0,0,0,0,0,0,0,0,0,0,0,0,0,0,-7.8001,-7.8003,0,-7.821,-7.8212,-7.8215,-7.8187,-7.8184,-7.818,-7.8177,-7.8389,-7.8397,-7.8406,0,0,0,0,0,0,0,0,0,0,0,0,0,-7.7577,-7.7585,-7.8001,-7.8003,-7.8006,-7.8209,-7.8212,-7.8215,-7.8188,-7.8183,-7.8179,-7.8175,-7.8386,-7.8396,-7.8407,0,0,0,0,0,0,0,0,0,0,0,0,0,-7.7771,-7.7588,-7.8,-7.8017,-7.802,-7.8209,-7.8212,-7.8216,-7.8188,-7.8183,-7.8178,-7.8173,-7.8382,-7.8395,-7.8408,-7.8593,0,0,-7.8449,-7.8455,0,0,0,0,0,0,0,0,-7.776,-7.7787,-7.8012,-7.8016,-7.802,-7.8167,-7.8141,-7.8342,-7.819,-7.8125,-7.8177,-7.8171,-7.8319,-7.8337,-7.8388,-7.8603,-7.8612,-7.845,-7.8458,-7.8464,-7.8467,0,0,0,0,0,0,0,-7.7747,-7.7778,-7.8083,-7.8015,-7.802,-7.8014,-7.8036,-7.8179,-7.8248,-7.813,-7.8128,-7.8154,-7.832,-7.8375,-7.8392,-7.8615,-7.845,-7.8461,-7.847,-7.8475,-7.8996,-7.9001,0,0,0,0,0,0,-7.7729,-7.7767,-7.8077,-7.809,-7.7875,-7.8025,-7.805,-7.8125,-7.8246,-7.826,-7.8158,-7.8151,-7.8355,-7.8377,-7.84,-7.8626,-7.8464,-7.8476,-7.8484,-7.899,-7.8997,-7.9004,0,0,0,0,0,0,-7.772,-7.7757,-7.8068,-7.7928,-7.7967,-7.8038,-7.8123,-7.8132,-7.8186,-7.8268,-7.828,-7.8201,-7.8352,-7.8381,-7.8546,-7.8633,-7.8482,-7.8494,-7.8983,-7.8992,-7.9,-7.908,0,0,0,0,0,0,-7.7708,-7.7754,-7.7825,-7.793,-7.7975,-7.8212,-7.8128,-7.814,-7.821,-7.8204,-7.8311,-7.8324,-7.835,-7.8527,-7.8559,-7.8649,-7.8504,-7.8976,-7.8987,-7.8998,-7.907,-7.909,-7.9108,0,0,0,0,0,-7.7693,-7.7838,-7.7829,-7.7866,-7.8065,-7.8217,-7.8242,-7.827,-7.8217,-7.8289,-7.8341,-7.8321,-7.8618,-7.8544,-7.858,-7.8675,-7.897,-7.8984,-7.8997,-7.9061,-7.9086,-7.9107,0,0,0,0,0,0,-7.774,-7.7852,-7.7843,-7.8026,-7.8112,-7.8212,-7.8303,-7.8295,-7.8397,-7.8387,-7.8416,-7.844,-7.8608,-7.8658,-7.8573,-7.8862,-7.8787,-7.8808,-7.8823,-7.8848,-7.8866,-7.8851,-7.8515,0,0,0,0,0,-7.7772,-7.7886,-7.7977,-7.813,-7.8174,-7.8231,-7.8298,-7.8312,-7.8403,-7.8439,-7.8503,-7.8591,-7.8705,-7.8779,-7.8887,-7.9076,-7.9101,-7.916,-7.9179,-7.9194,-7.9212,-7.9319,-7.9347,-7.9047,-7.9047,-7.9047,0,0,-7.7838,-7.7914,-7.7984,-7.8141,-7.821,-7.8328,-7.8262,-7.8389,-7.8477,-7.8457,-7.8618,-7.8669,-7.8769,-7.8948,-7.903,-7.8994,-7.9301,-7.9211,-7.9222,-7.9233,-7.9335,-7.9363,-7.9389,-7.9056,-7.9054,-7.9053,0,0,-7.802,-7.8088,-7.8224,-7.8295,-7.84,-7.8438,-7.847,-7.8572,-7.8606,-7.8767,-7.8756,-7.8861,-7.9055,-7.9128,-7.9191,-7.9403,-7.9389,-7.9438,-7.9537,-7.9641,-7.9664,-7.9685,-7.9763,-7.9791,-7.9455,-7.9456,-7.9456,0,-7.8089,-7.8267,-7.8294,-7.8424,-7.8495,-7.8484,-7.8623,-7.8689,-7.8824,-7.8873,-7.8832,-7.9078,-7.9144,-7.9341,-7.9394,-7.9444,-7.9483,-7.9426,-7.9659,-7.968,-7.97,-7.9775,-7.9804,-7.9461,-7.946,-7.946,-7.9459,0,-7.8348,-7.8472,-7.8569,-7.8702,-7.8783,-7.8916,-7.8964,-7.9043,-7.9051,-7.9093,-7.9259,-7.9339,-7.9465,-7.9512,-7.952,-7.9712,-7.9687,-7.9652,-7.9578,-7.9734,-7.9805,-7.9833,-7.9469,-7.9467,-7.9465,-7.9464,0,0,-7.8565,-7.8713,-7.8748,-7.8809,-7.8926,-7.9022,-7.9155,-7.928,-7.9348,-7.9442,-7.9556,-7.9722,-7.9692,-7.9762,-7.9778,-7.9869,-8.0035,-7.9823,-7.9826,-7.9861,-8.0254,-8.028,-8.0313,-8.0026,-8.0031,-8.0036,-8.0246,0,-7.876,-7.8997,-7.9026,-7.9237,-7.9353,-7.9345,-7.9462,-7.9546,-7.959,-7.9694,-7.9741,-7.986,-7.9809,-7.9853,-7.9942,-7.9996,-8.0114,-7.9981,-8.0133,-8.0138,-8.0109,-8.035,-8.0378,-8.0572,-8.0273,-8.0278,-8.0282,0,-7.9018,-7.9122,-7.9344,-7.9448,-7.9497,-7.9602,-7.972,-7.9819,-7.9915,-7.9941,-8.0022,-8.0027,-8.0166,-8.0085,-8.0278,-8.0187,-8.025,-8.0286,-8.0295,-8.0311,-8.022,-8.0374,-8.0635,-8.0664,-8.0325,-8.0321,-8.0318,0,-7.9157,-7.9351,-7.9511,-7.9563,-7.9686,-7.9761,-7.9815,-7.9906,-7.998,-8.0083,-8.0132,-8.0249,-8.0314,-8.0404,-8.0441,-8.0379,-8.0633,-8.0555,-8.0659,-8.0658,-8.0713,-8.0709,-8.099,-8.0752,-8.0751,-8.0751,-8.075,0,-7.9372,-7.9509,-7.9575,-7.9673,-7.9827,-7.9859,-8.0011,-8.0063,-8.0144,-8.0253,-8.0252,-8.0354,-8.0396,-8.0505,-8.0534,-8.0691,-8.0719,-8.0744,-8.0751,-8.0746,-8.0743,-8.0789,-8.0777,-8.0759,-8.0757,-8.0755,-8.0754,0,-7.9553,-7.9602,-7.9775,-7.9879,-7.9909,-8.0018,-8.0107,-8.0202,-8.0245,-8.0382,-8.0416,-8.0484,-8.0612,-8.0658,-8.0813,-8.0833,-8.1015,-8.1009,-8.0983,-8.0985,-8.1087,-8.1078,-8.1408,-8.1454,-8.1184,-8.1187,-8.1189,0,-7.9687,-7.9793,-7.9909,-7.9982,-8.0041,-8.0158,-8.0234,-8.0271,-8.035,-8.0469,-8.0551,-8.0679,-8.0783,-8.0988,-8.1051,-8.117,-8.1168,-8.1276,-8.1186,-8.1179,-8.1173,-8.1167,-8.1178,-8.1293,-8.1296,-8.1298,-8.13,0,-7.9923,-7.9943,-8.0052,-8.0173,-8.0264,-8.036,-8.0452,-8.0512,-8.0563,-8.0652,-8.0784,-8.0865,-8.1025,-8.1153,-8.1276,-8.1332,-8.1326,-8.1328,-8.1358,-8.1355,-8.1336,-8.135,-8.1031,-8.132,-8.1318,-8.1316,-8.1315,-8.1315,-8.0086,-8.0181,-8.0278,-8.0402,-8.0476,-8.0563,-8.0659,-8.0715,-8.0826,-8.096,-8.0974,-8.1117,-8.1212,-8.1377,-8.1439,-8.1551,-8.1522,-8.1565,-8.1577,-8.1588,-8.1597,-8.1317,-8.1573,-8.1573,-8.1572,-8.1572,-8.1571,0,-8.0323,-8.0386,-8.0499,-8.063,-8.0728,-8.0714,-8.0816,-8.0899,-8.1025,-8.1115,-8.1218,-8.1371,-8.1495,-8.1569,-8.1694,-8.177,-8.177,-8.1801,-8.1797,-8.1811,-8.1615,-8.1577,-8.1799,-8.1799,-8.1799,-8.1799,-8.1799,-8.1799,-8.0458,-8.0618,-8.065,-8.0848,-8.0909,-8.105,-8.111,-8.1191,-8.1264,-8.1435,-8.1539,-8.1586,-8.167,-8.1802,-8.1916,-8.1934,-8.1981,-8.2015,-8.2031,-8.1847,-8.1824,-8.1802,-8.1766,-8.2025,-8.2025,-8.2218,-8.222,-8.2221]}]]